Weather History for KLBF - December, 2013

Change the Weather History Date:

Tuesday, December 3, 2013

  Actual Average Record
Temperature  
Mean Temperature 26 °F 28 °F  
Max Temperature 33 °F 42 °F 71 °F (1959)
Min Temperature 18 °F 14 °F -8 °F (1978)
Degree Days  
Heating Degree Days 39 37  
Month to date heating degree days 90 111  
Since 1 July heating degree days 1575 1662  
Cooling Degree Days 0 0  
Month to date cooling degree days 0 0  
Year to date cooling degree days 998 768  
Moisture  
Dew Point 23 °F    
Average Humidity 86    
Maximum Humidity 100    
Minimum Humidity 71    
Precipitation  
Precipitation T in 0.01 in 0.58 in (1955)
Month to date precipitation T 0.04  
Year to date precipitation 21.61 19.86  
Snow  
Snow T in 0.10 in 5.50 in (1955)
Month to date snowfall T 0.4  
Since 1 July snowfall 3.1 6.6  
Snow Depth 0.00 in    
Sea Level Pressure  
Sea Level Pressure 29.67 in    
Wind  
Wind Speed 10 mph (NNE)    
Max Wind Speed 25 mph    
Max Gust Speed 36 mph    
Visibility 8 miles    
Events Fog    
T = Trace of Precipitation, MM = Missing Value Source: NWS Daily Summary

Daily Weather History Graph

Daily Weather History Graph

Search for Another Location

Airport or City:

Trip Planner

Search our weather history database for the weather conditions in past years. The results will help you decide how hot, cold, wet, or windy it might be!

Date:

Astronomy

Dec. 03, 2013 Rise Set
Actual Time 7:50 AM CST 5:14 PM CST
Civil Twilight 7:20 AM CST 5:45 PM CST
Nautical Twilight 6:45 AM CST 6:19 PM CST
Astronomical Twilight 6:12 AM CST 6:52 PM CST
Moon 8:21 AM CST (12/3) 6:20 PM CST (12/3)
Length of Visible Light 10h 24m
Length of Day
9h 23m
New Moon, 1% of the Moon is Illuminated
Dec 3
New Moon
Dec 9
First Quarter
Dec 17
Full
Dec 25
Last Quarter
Jan 1
New

Hourly Weather History & Observations

Time (CST) Temp. Windchill Dew Point Humidity Pressure Visibility Wind Dir Wind Speed Gust Speed Precip Events Conditions
12:53 AM 27.0 °F 23.0 °F 23.0 °F 85% 29.55 in 10.0 mi West 3.5 mph - N/A   Clear
1:53 AM 28.0 °F 24.2 °F 24.1 °F 85% 29.53 in 10.0 mi WSW 3.5 mph - N/A   Scattered Clouds
2:53 AM 30.0 °F 24.1 °F 25.0 °F 82% 29.53 in 10.0 mi NE 5.8 mph - N/A   Clear
3:53 AM 28.0 °F - 24.1 °F 85% 29.52 in 10.0 mi Calm Calm - N/A   Clear
4:53 AM 28.0 °F - 24.1 °F 85% 29.53 in 10.0 mi Calm Calm - N/A   Clear
5:53 AM 28.0 °F 24.2 °F 24.1 °F 85% 29.55 in 10.0 mi Variable 3.5 mph - N/A   Clear
6:53 AM 28.9 °F 22.8 °F 25.0 °F 85% 29.60 in 10.0 mi ENE 5.8 mph - N/A   Clear
7:53 AM 28.0 °F 24.2 °F 25.0 °F 88% 29.61 in 10.0 mi East 3.5 mph - N/A   Clear
8:21 AM 26.6 °F 16.2 °F 24.8 °F 93% 29.56 in 2.5 mi NNE 11.5 mph - N/A   Scattered Clouds
8:24 AM 26.6 °F 16.2 °F 24.8 °F 93% 29.56 in 1.2 mi NNE 11.5 mph - N/A   Scattered Clouds
8:27 AM 26.6 °F 16.8 °F 26.6 °F 100% 29.56 in 0.8 mi NE 10.4 mph - N/A   Mist
8:53 AM 28.9 °F 19.8 °F 28.0 °F 96% 29.64 in 0.5 mi NE 10.4 mph - N/A Fog Light Freezing Fog
9:38 AM 30.2 °F 24.3 °F 28.4 °F 93% 29.59 in 1.0 mi NE 5.8 mph - N/A   Overcast
9:49 AM 30.2 °F 22.6 °F 28.4 °F 93% 29.59 in 1.8 mi NE 8.1 mph - N/A   Overcast
9:53 AM 30.0 °F 22.4 °F 28.9 °F 96% 29.66 in 2.0 mi NE 8.1 mph - N/A   Overcast
10:06 AM 30.2 °F 21.9 °F 30.2 °F 100% 29.60 in 3.0 mi NE 9.2 mph - N/A   Overcast
10:53 AM 32.0 °F 23.6 °F 30.0 °F 92% 29.68 in 7.0 mi NE 10.4 mph - N/A   Overcast
11:31 AM 32.0 °F 23.0 °F 30.2 °F 93% 29.61 in 9.0 mi NNE 11.5 mph - N/A   Overcast
11:53 AM 33.1 °F 24.4 °F 30.0 °F 89% 29.67 in 10.0 mi NE 11.5 mph - N/A   Overcast
12:53 PM 32.0 °F 21.6 °F 28.9 °F 88% 29.68 in 10.0 mi NE 15.0 mph - N/A   Overcast
1:53 PM 32.0 °F 23.0 °F 28.9 °F 88% 29.68 in 9.0 mi NNE 11.5 mph - N/A   Overcast
2:53 PM 30.0 °F 20.0 °F 27.0 °F 88% 29.69 in 10.0 mi NNE 12.7 mph - N/A   Overcast
3:53 PM 28.9 °F 16.1 °F 25.0 °F 85% 29.71 in 10.0 mi North 19.6 mph 24.2 mph N/A   Overcast
4:20 PM 28.4 °F 18.0 °F 21.2 °F 74% 29.64 in 10.0 mi North 12.7 mph 20.7 mph N/A   Overcast
4:53 PM 27.0 °F 13.2 °F 19.9 °F 75% 29.72 in 10.0 mi North 20.7 mph 28.8 mph N/A   Mostly Cloudy
5:53 PM 25.0 °F 13.1 °F 19.0 °F 78% 29.74 in 10.0 mi North 13.8 mph 25.3 mph N/A   Overcast
6:53 PM 24.1 °F 13.1 °F 18.0 °F 77% 29.76 in 10.0 mi North 11.5 mph - N/A   Overcast
7:53 PM 24.1 °F 13.1 °F 17.1 °F 75% 29.80 in 10.0 mi North 11.5 mph 23.0 mph N/A   Overcast
8:20 PM 24.8 °F 12.9 °F 17.6 °F 74% 29.73 in 10.0 mi North 13.8 mph - N/A   Overcast
8:49 PM 23.0 °F 11.1 °F 17.6 °F 80% 29.74 in 10.0 mi North 12.7 mph - N/A   Overcast
8:53 PM 23.0 °F 10.1 °F 17.1 °F 78% 29.84 in 10.0 mi North 15.0 mph - N/A   Overcast
9:53 PM 21.9 °F 8.7 °F 14.0 °F 72% 29.86 in 10.0 mi North 15.0 mph 25.3 mph N/A   Overcast
10:53 PM 19.9 °F 5.7 °F 12.0 °F 71% 29.87 in 10.0 mi NNW 16.1 mph 24.2 mph N/A   Overcast
11:53 PM 18.0 °F 2.2 °F 10.0 °F 71% 29.86 in 9.0 mi North 18.4 mph 32.2 mph 0.00 in   Overcast